QPF
0.00 0.00 0.00 0.00 0.00 0.00 0.00 0.00 0.00 0.00 0.00 0.01 0.01 0.01 0.02 0.04 0.04 0.03 0.04 0.05 0.05 0.05
0.00 0.00 0.00 0.00 0.00 0.00 0.00 0.00 0.00 0.00 0.00 0.01 0.01 0.02 0.02 0.02 0.03 0.03 0.05 0.06 0.06 0.05
0.00 0.00 0.00 0.00 0.00 0.00 0.00 0.00 0.00 0.00 0.00 0.00 0.01 0.03 0.04 0.04 0.04 0.06 0.07 0.06 0.07 0.07
0.00 0.00 0.00 0.00 0.00 0.00 0.00 0.00 0.00 0.00 0.00 0.00 0.00 0.01 0.02 0.03 0.05 0.06 0.06 0.07 0.08 0.08
0.00 0.00 0.00 0.00 0.00 0.00 0.00 0.00 0.00 0.00 0.00 0.00 0.00 0.00 0.00 0.00 0.01 0.02 0.04 0.04 0.06 0.06
0.00 0.00 0.00 0.00 0.00 0.00 0.00 0.00 0.00 0.00 0.00 0.00 0.00 0.00 0.00 0.00 0.00 0.01 0.01 0.01 0.02 0.04
0.00 0.00 0.00 0.00 0.00 0.00 0.00 0.00 0.00 0.00 0.00 0.00 0.00 0.00 0.00 0.00 0.00 0.00 0.00 0.01 0.01 0.03
0.00 0.00 0.00 0.00 0.00 0.00 0.00 0.00 0.00 0.00 0.00 0.00 0.00 0.00 0.00 0.00 0.00 0.00 0.00 0.00 0.01 0.02
0.00 0.00 0.00 0.00 0.00 0.00 0.00 0.00 0.00 0.00 0.00 0.00 0.00 0.01 0.00 0.00 0.00 0.00 0.00 0.00 0.00 0.02
0.00 0.00 0.00 0.00 0.00 0.00 0.00 0.00 0.00 0.00 0.00 0.00 0.01 0.01 0.01 0.00 0.00 0.00 0.00 0.01 0.02 0.01
0.00 0.00 0.00 0.00 0.00 0.00 0.00 0.00 0.00 0.00 0.00 0.00 0.01 0.01 0.00 0.00 0.00 0.00 0.01 0.01 0.00 0.00
0.00 0.00 0.00 0.00 0.00 0.00 0.00 0.00 0.00 0.00 0.00 0.00 0.00 0.01 0.00 0.00 0.02 0.03 0.02 0.01 0.00 0.00
0.00 0.00 0.00 0.00 0.00 0.00 0.00 0.00 0.00 0.00 0.00 0.00 0.00 0.00 0.00 0.00 0.00 0.00 0.00 0.00 0.00 0.00
0.00 0.00 0.00 0.00 0.00 0.00 0.00 0.00 0.00 0.00 0.00 0.00 0.00 0.00 0.00 0.00 0.00 0.00 0.00 0.00 0.00 0.00
MSLP
1013.27 1013.09 1012.87 1012.63 1012.44 1012.22 1012.06 1012.02 1012.20 1012.43 1012.55 1012.96 1013.21 1013.45 1013.59 1013.63 1013.88 1014.12 1014.70 1015.17 1015.52 1015.98
1013.64 1013.37 1013.11 1012.79 1012.56 1012.38 1011.99 1012.01 1012.19 1012.44 1012.72 1012.84 1012.94 1013.11 1013.28 1013.41 1013.54 1013.86 1014.23 1014.57 1015.37 1015.93
1014.06 1013.65 1013.31 1013.04 1012.77 1012.42 1012.18 1011.98 1012.27 1012.54 1012.73 1012.88 1013.03 1013.27 1013.44 1013.56 1013.72 1013.94 1014.24 1014.60 1015.19 1015.92
1014.39 1014.06 1013.67 1013.32 1012.96 1012.77 1012.57 1012.47 1012.54 1012.86 1013.00 1013.02 1013.07 1013.29 1013.62 1014.02 1014.21 1014.60 1015.13 1015.39 1015.74 1016.21
1015.30 1014.86 1014.34 1014.02 1013.50 1013.27 1013.23 1013.15 1013.31 1013.35 1013.37 1013.40 1013.42 1013.27 1013.48 1014.43 1014.59 1014.81 1015.53 1016.27 1016.50 1016.88
1015.97 1015.47 1015.22 1014.98 1014.65 1014.40 1014.13 1013.97 1013.91 1014.00 1014.18 1014.13 1014.30 1014.44 1014.44 1014.29 1015.07 1015.13 1015.90 1016.36 1016.86 1017.32
1016.59 1016.40 1016.03 1015.80 1015.66 1015.61 1015.36 1015.13 1015.12 1015.07 1015.21 1015.24 1015.19 1015.51 1015.39 1015.01 1016.04 1015.87 1016.55 1016.98 1017.17 1017.55
1017.20 1017.15 1016.84 1016.54 1016.30 1016.33 1016.16 1016.25 1016.21 1015.81 1015.92 1016.11 1016.03 1016.16 1015.98 1016.41 1016.80 1017.02 1017.39 1018.01 1018.17 1018.20
1017.90 1017.68 1017.55 1017.22 1016.94 1016.72 1016.98 1016.98 1016.95 1016.85 1016.73 1016.51 1016.71 1016.81 1016.95 1017.27 1017.64 1018.05 1018.44 1018.74 1019.02 1018.78
1018.41 1018.32 1018.16 1017.86 1017.60 1017.82 1017.94 1017.98 1017.72 1017.66 1017.37 1017.43 1017.62 1017.69 1017.80 1018.01 1018.41 1018.81 1019.17 1019.53 1019.61 1019.50
1019.05 1018.93 1018.77 1018.59 1018.62 1018.80 1018.94 1018.88 1018.86 1018.77 1018.57 1018.60 1018.69 1018.66 1018.74 1018.91 1019.17 1019.47 1019.81 1020.00 1020.08 1020.07
1019.55 1019.42 1019.30 1019.32 1019.53 1019.64 1019.72 1019.86 1019.79 1019.83 1019.76 1019.78 1019.73 1019.59 1019.57 1019.66 1020.08 1020.38 1020.49 1020.48 1020.41 1020.35
1019.98 1019.89 1019.97 1020.08 1020.25 1020.40 1020.49 1020.52 1020.56 1020.56 1020.65 1020.55 1020.42 1020.35 1020.25 1020.24 1020.49 1020.69 1020.60 1020.67 1020.53 1020.34
1020.33 1020.48 1020.64 1020.78 1020.86 1020.89 1020.95 1020.98 1021.07 1021.11 1021.03 1020.93 1020.82 1020.67 1020.53 1020.45 1020.68 1020.73 1020.75 1020.71 1020.73 1020.69
Thickness
5634 5634 5635 5635 5633 5633 5632 5630 5627 5621 5616 5609 5603 5597 5592 5588 5584 5579 5575 5571 5569 5568
5622 5622 5623 5623 5623 5621 5623 5620 5615 5609 5602 5597 5590 5583 5576 5570 5566 5560 5558 5557 5549 5548
5609 5611 5612 5611 5610 5611 5610 5609 5602 5594 5588 5582 5573 5562 5552 5546 5541 5537 5535 5535 5533 5530
5598 5598 5598 5600 5600 5598 5596 5593 5588 5581 5574 5566 5555 5539 5526 5518 5515 5512 5508 5507 5509 5509
5581 5583 5585 5586 5588 5585 5581 5579 5573 5567 5559 5547 5534 5522 5511 5500 5496 5494 5489 5484 5485 5485
5567 5570 5571 5570 5570 5568 5566 5563 5560 5552 5541 5528 5512 5501 5492 5489 5481 5481 5475 5474 5471 5470
5556 5556 5556 5555 5553 5549 5548 5546 5541 5534 5523 5508 5497 5484 5477 5475 5464 5466 5462 5459 5459 5459
5544 5542 5543 5542 5541 5537 5534 5529 5525 5521 5511 5498 5487 5477 5469 5459 5454 5451 5448 5443 5443 5444
5532 5531 5529 5529 5528 5526 5521 5516 5511 5506 5499 5490 5480 5470 5461 5453 5447 5441 5437 5434 5432 5435
5520 5518 5518 5517 5516 5511 5506 5501 5498 5493 5490 5480 5472 5464 5455 5446 5438 5432 5428 5425 5423 5424
5508 5507 5507 5505 5502 5497 5491 5487 5482 5478 5475 5468 5462 5456 5449 5441 5433 5427 5423 5421 5419 5419
5499 5498 5497 5493 5488 5484 5479 5474 5470 5465 5460 5455 5450 5446 5442 5435 5427 5421 5419 5418 5417 5418
5491 5490 5487 5482 5478 5473 5469 5464 5460 5455 5449 5446 5441 5438 5436 5431 5425 5421 5419 5419 5418 5419
5485 5480 5476 5472 5468 5465 5461 5455 5449 5446 5444 5441 5438 5436 5434 5431 5425 5422 5420 5419 5417 5415